Flag Weather past 2 weeks in Sochi, Russia

Now
59 °F

Overcast.


Feels Like: 58 °F
Forecast: 58 / 67 °F
Wind: 6 mph from Northeast

Location: Adler

Current Time: Oct 31, 2014 at 10:23:35 AM

Latest Report: Oct 31, 2014 at 9:30 AM


Visibility: N/A

Pressure: 29.89 "Hg

Humidity: 72%

Dew point: 50 °F

Location of SochiLocation

Historic Weather in Sochi — Graph

°F

Sochi temperature yesterday

Maximum temperature yesterday: 64 °F (at 11:00 AM)
Minimum temperature yesterday: 50 °F (at 4:30 AM)
Average temperature yesterday: 56 °F

Past Weeks' High & Low Weather Summary

 TemperatureHumidityPressure
High75 °F (Oct 23, 1:00 PM)94% (Oct 16, 8:30 PM)30.24 "Hg (Oct 16, 8:30 PM)
Low46 °F (Oct 20, 5:30 AM)25% (Oct 23, 1:00 PM)29.62 "Hg (Oct 18, 5:30 PM)
Average58 °F75%30.00 "Hg
* Reported Oct 16 10:00 AM — Oct 31 9:30 AM, Sochi, Weather by CustomWeather, © 2014

Note: Actual official high and low records may vary slightly from our data, if they occured in-between our weather recording intervals... More about our weather records

Advertising

Sochi weather history for previous 24 hours

 ConditionsComfort  
Time TempWeatherWind HumidityBarometerVisibility
9:30 AM
Oct 31
59 °FOvercast.6 mph72%29.89 "HgN/A
9:00 AM57 °FOvercast.8 mph77%29.89 "HgN/A
8:30 AM55 °FOvercast.10 mph82%29.89 "HgN/A
8:00 AM55 °FOvercast.No wind82%29.89 "HgN/A
7:30 AM54 °FOvercast.6 mph82%29.89 "HgN/A
7:00 AM54 °FOvercast.No wind82%29.89 "HgN/A
6:30 AM55 °FOvercast.No wind77%29.89 "HgN/A
6:00 AM55 °FOvercast.No wind82%29.89 "HgN/A
5:30 AM55 °FMostly cloudy.3 mph82%29.89 "HgN/A
5:00 AM55 °FMostly cloudy.1 mph77%29.89 "HgN/A
4:30 AM55 °FMostly cloudy.No wind77%29.89 "HgN/A
4:00 AM57 °FMostly cloudy.3 mph72%29.89 "HgN/A
3:30 AM55 °FMostly cloudy.13 mph77%29.89 "HgN/A
3:00 AM57 °FSprinkles. Mostly cloudy.13 mph72%29.89 "HgN/A
2:30 AM55 °FSprinkles. Mostly cloudy.10 mph77%29.89 "HgN/A
2:00 AM55 °FOvercast.6 mph77%29.89 "HgN/A
1:30 AM54 °FOvercast.6 mph82%29.89 "HgN/A
1:00 AM54 °FOvercast.3 mph82%29.89 "HgN/A
12:30 AM55 °FMostly cloudy.6 mph77%29.92 "HgN/A
12:00 AM54 °FMostly cloudy.3 mph82%29.92 "HgN/A
11:30 PM
Oct 30
55 °FMostly cloudy.3 mph77%29.92 "HgN/A
11:00 PM54 °FOvercast.No wind82%29.92 "HgN/A
10:30 PM54 °FOvercast.No wind82%29.92 "HgN/A
10:00 PM54 °FOvercast.No wind88%29.92 "HgN/A
9:30 PM54 °FHigh level clouds.6 mph88%29.95 "HgN/A
9:00 PM54 °FHigh level clouds.3 mph88%29.95 "HgN/A
8:30 PM54 °FHigh level clouds.6 mph88%29.92 "HgN/A
8:00 PM54 °FHigh level clouds.3 mph88%29.92 "HgN/A
7:30 PM55 °FHigh level clouds.6 mph88%29.92 "HgN/A
7:00 PM55 °FHigh level clouds.3 mph88%29.92 "HgN/A
6:30 PM55 °FHigh level clouds.3 mph88%29.92 "HgN/A
6:00 PM57 °FHigh level clouds.3 mph88%29.92 "HgN/A
5:30 PM59 °FPartly sunny.1 mph82%29.92 "HgN/A
5:00 PM61 °FPartly sunny.3 mph83%29.92 "HgN/A
4:30 PM61 °FPartly sunny.1 mph83%29.92 "HgN/A
4:00 PM63 °FScattered clouds.6 mph77%29.95 "HgN/A
3:30 PM63 °FScattered clouds.8 mph77%29.95 "HgN/A
3:00 PM63 °FScattered clouds.8 mph77%29.95 "HgN/A
2:30 PM64 °FScattered clouds.8 mph73%29.95 "HgN/A
2:00 PM63 °FScattered clouds.10 mph73%29.95 "HgN/A
1:30 PM63 °FPassing clouds.8 mph73%29.95 "HgN/A
1:00 PM63 °FPassing clouds.6 mph68%29.98 "HgN/A
12:30 PM63 °FPassing clouds.6 mph68%29.98 "HgN/A
12:00 PM63 °FPassing clouds.6 mph68%30.01 "HgN/A
11:30 AM63 °FPassing clouds.3 mph68%30.01 "HgN/A
11:00 AM64 °FPassing clouds.No wind64%30.04 "HgN/A
10:30 AM63 °FPassing clouds.No wind68%30.04 "HgN/A
10:00 AM63 °FPassing clouds.No wind68%30.04 "HgN/A
Weather by CustomWeather, © 2014

See weather overviewHow to use our weather pages